DW7816 Weather Reports


Display with metric or nautical units.
time (UTC)temp
F
wind
direction
speed
MPH
gust
MPH
rain 1hr
in
rain 24hr
in
rain mn
in
humidity
%
barometer
mb
20260903180503 94 288 3.0 11.0 0.00 0.00 0.00 57 1013.1
20260903175504 94 227 2.0 9.0 0.00 0.00 0.00 53 1013.4
20260903174441 93 253 3.0 11.0 0.00 0.00 0.00 57 1013.5
20260903172306 92 264 3.0 12.0 0.00 0.00 0.00 56 1013.7
20260903171310 92 159 2.0 7.0 0.00 0.00 0.00 56 1013.8
20260903170324 92 298 3.0 8.0 0.00 0.00 0.00 62 1013.8
20260903165328 91 203 2.0 9.0 0.00 0.00 0.00 59 1014.0
20260903164307 91 164 2.0 9.0 0.00 0.00 0.00 63 1014.1
20260903163258 90 296 3.0 8.0 0.00 0.00 0.00 62 1014.2
20260903162228 90 190 2.0 7.0 0.00 0.00 0.00 64 1014.3
20260903161241 89 308 2.0 10.0 0.00 0.00 0.00 67 1014.5
20260903160226 89 287 2.0 10.0 0.00 0.00 0.00 66 1014.6
20260903155213 89 236 2.0 7.0 0.00 0.00 0.00 66 1014.5
20260903153111 88 265 2.0 9.0 0.00 0.00 0.00 68 1014.6
20260903152121 87 171 2.0 9.0 0.00 0.00 0.00 69 1014.6
20260903151056 88 197 1.0 9.0 0.00 0.00 0.00 68 1014.7
20260903150046 87 259 1.0 8.0 0.00 0.00 0.00 71 1014.7
20260903145014 87 221 0.0 5.0 0.00 0.00 0.00 71 1014.6
20260903143941 85 285 1.0 7.0 0.00 0.00 0.00 72 1014.6
20260903142927 85 159 1.0 6.0 0.00 0.00 0.00 74 1014.9
20260903135625 82 292 0.0 4.0 0.00 0.00 0.00 80 1015.2
20260903134628 81 169 0.0 2.0 0.00 0.00 0.00 84 1015.2
20260903133605 80 206 0.0 3.0 0.00 0.00 0.00 86 1015.2
20260903132605 78 223 0.0 3.0 0.00 0.00 0.00 87 1015.2
20260903131557 77 244 0.0 0.0 0.00 0.00 0.00 92 1015.1
20260903130621 75 171 0.0 2.0 0.00 0.00 0.00 95 1015.1
20260903124457 71 245 0.0 0.0 0.00 0.00 0.00 99 1015.0
20260903123429 70 245 0.0 0.0 0.00 0.00 0.00 98 1014.9
20260903122356 69 245 0.0 0.0 0.00 0.00 0.00 98 1014.8
20260903121322 69 245 0.0 0.0 0.00 0.00 0.00 98 1014.8
20260903120325 69 245 0.0 0.0 0.00 0.00 0.00 97 1014.8
20260903115335 69 245 0.0 0.0 0.00 0.00 0.00 97 1014.7
20260903114335 69 245 0.0 0.0 0.00 0.00 0.00 97 1014.7
20260903112144 69 245 0.0 0.0 0.00 0.00 0.00 96 1014.6
20260903110023 70 245 0.0 0.0 0.00 0.00 0.00 97 1014.5
20260903105014 70 245 0.0 0.0 0.00 0.00 0.00 96 1014.4
20260903104019 70 245 0.0 0.0 0.00 0.00 0.00 96 1014.3
20260903101841 70 245 0.0 0.0 0.00 0.00 0.00 96 1014.3
20260903095731 71 245 0.0 0.0 0.00 0.00 0.00 95 1014.2
20260903091325 71 245 0.0 0.0 0.00 0.00 0.00 94 1014.1
20260903090251 71 245 0.0 0.0 0.00 0.00 0.00 94 1014.1
20260903085305 71 245 0.0 0.0 0.00 0.00 0.00 94 1014.0
20260903083118 71 245 0.0 0.0 0.00 0.00 0.00 94 1014.0
20260903082059 71 245 0.0 0.0 0.00 0.00 0.00 94 1014.1
20260903081046 71 245 0.0 0.0 0.00 0.00 0.00 94 1014.1
20260903080040 71 245 0.0 0.0 0.00 0.00 0.00 94 1014.0
20260903075057 71 245 0.0 0.0 0.00 0.00 0.00 94 1014.0
20260903072931 71 245 0.0 0.0 0.00 0.00 0.00 93 1014.0
20260903071906 71 245 0.0 0.0 0.00 0.00 0.00 93 1014.0
20260903070858 71 245 0.0 0.0 0.00 0.00 0.00 93 1014.0
20260903065901 71 245 0.0 0.0 0.00 0.00 0.00 92 1014.1
20260903064914 72 245 0.0 0.0 0.00 0.00 0.00 92 1014.1
20260903062725 72 245 0.0 0.0 0.00 0.00 0.00 91 1014.1
20260903060534 72 245 0.0 0.0 0.00 0.00 0.00 90 1014.0
20260903054359 73 245 0.0 0.0 0.00 0.00 0.00 90 1014.0
20260903053411 73 245 0.0 0.0 0.00 0.00 0.00 90 1014.0
20260903052402 73 245 0.0 0.0 0.00 0.00 0.00 90 1013.9
20260903051404 73 245 0.0 0.0 0.00 0.00 0.00 89 1013.9
20260903050350 73 245 0.0 0.0 0.00 0.00 0.00 89 1013.9
20260903044227 73 245 0.0 0.0 0.00 0.00 0.00 88 1013.9
20260903043219 74 245 0.0 0.0 0.00 0.00 0.00 88 1013.8
20260903041043 74 245 0.0 0.0 0.00 0.00 0.00 87 1013.8
20260903040051 74 245 0.0 0.0 0.00 0.00 0.00 87 1013.8
20260903034002 75 245 0.0 0.0 0.00 0.00 0.00 86 1013.7
20260903032932 75 245 0.0 0.0 0.00 0.00 0.00 86 1013.7
20260903031929 75 245 0.0 0.0 0.00 0.00 0.00 86 1013.6
20260903030937 75 245 0.0 0.0 0.00 0.00 0.00 87 1013.6
20260903025953 75 245 0.0 0.0 0.00 0.00 0.00 86 1013.6
20260903025016 75 245 0.0 0.0 0.00 0.00 0.00 84 1013.5
20260903024028 75 245 0.0 0.0 0.00 0.00 0.00 85 1013.4
20260903021937 76 245 0.0 0.0 0.00 0.00 0.00 84 1013.2
20260903014710 77 245 0.0 0.0 0.00 0.00 0.00 82 1012.6
20260903013728 78 245 0.0 0.0 0.00 0.00 0.00 81 1012.5
20260903012702 79 245 0.0 0.0 0.00 0.00 0.00 80 1012.4
20260903010608 81 245 0.0 0.0 0.00 0.00 0.00 77 1012.1
20260903005558 82 245 0.0 0.0 0.00 0.00 0.00 74 1012.0
20260903004558 83 245 0.0 0.0 0.00 0.00 0.00 73 1012.0
20260903003610 84 245 0.0 0.0 0.00 0.00 0.00 70 1012.0
20260903002554 86 245 0.0 0.0 0.00 0.00 0.00 69 1012.0
20260903001546 87 245 0.0 0.0 0.00 0.00 0.00 65 1012.0
20260903000538 89 245 0.0 0.0 0.00 0.00 0.00 62 1012.0
20260902235517 91 245 0.0 0.0 0.00 0.00 0.00 57 1012.0
20260902234508 92 245 0.0 0.0 0.00 0.00 0.00 54 1012.0
20260902233440 94 204 0.0 0.0 0.00 0.00 0.00 50 1012.1
20260902232451 95 231 0.0 1.0 0.00 0.00 0.00 47 1012.2
20260902231442 96 270 0.0 1.0 0.00 0.00 0.00 45 1012.1
20260902230500 96 249 0.0 1.0 0.00 0.00 0.00 46 1012.3
20260902225427 96 267 0.0 2.0 0.00 0.00 0.00 48 1012.4
20260902224444 96 203 1.0 5.0 0.00 0.00 0.00 47 1012.4
20260902223454 96 300 0.0 4.0 0.00 0.00 0.00 47 1012.4
20260902222514 96 317 0.0 6.0 0.00 0.00 0.00 48 1012.5
20260902221518 97 315 1.0 4.0 0.00 0.00 0.00 46 1012.5
20260902215353 97 348 1.0 3.0 0.00 0.00 0.00 45 1012.5
20260902214336 97 287 0.0 1.0 0.00 0.00 0.00 45 1012.6
20260902212135 96 250 1.0 6.0 0.00 0.00 0.00 48 1012.7
20260902211153 95 137 1.0 5.0 0.00 0.00 0.00 51 1012.8
20260902210158 96 190 2.0 8.0 0.00 0.00 0.00 47 1012.9
20260902205134 96 192 3.0 9.0 0.00 0.00 0.00 50 1013.0
20260902204128 96 192 3.0 9.0 0.00 0.00 0.00 47 1013.1
20260902203056 96 163 2.0 6.0 0.00 0.00 0.00 46 1013.3
20260902200932 94 169 0.0 3.0 0.00 0.00 0.00 53 1013.6
20260902195934 95 159 0.0 0.0 0.00 0.00 0.00 48 1013.8
20260902193836 95 281 0.0 2.0 0.00 0.00 0.00 48 1013.9
20260902192831 96 323 1.0 6.0 0.00 0.00 0.00 49 1014.0
20260902191824 95 222 0.0 4.0 0.00 0.00 0.00 50 1014.2
20260902190757 96 99 0.0 0.0 0.00 0.00 0.00 49 1014.4
20260902184612 96 337 1.0 6.0 0.00 0.00 0.00 50 1014.7
20260902183543 95 315 1.0 6.0 0.00 0.00 0.00 52 1014.8
20260902182517 95 241 0.0 4.0 0.00 0.00 0.00 52 1014.9
20260902181459 95 205 1.0 4.0 0.00 0.00 0.00 53 1015.1